Tracking 22124 objects as of 25-Jan-2021
HD Live streaming from Space Station
objects crossing your sky now

FLOCK 4V 18

Track FLOCK 4V 18 now!
10-day predictions
FLOCK 4V 18 is classified as:


NORAD ID: 46597
Int'l Code: 2020-061BG
Perigee: 521.1 km
Apogee: 533.7 km
Inclination: 97.5 °
Period: 95.0 minutes
Semi major axis: 6898 km
RCS: Unknown
Launch date: September 3, 2020
Source: United States (US)
Launch site: FRENCH GUIANA (FRGUI)
aabbcc
Your satellite tracking list
Your tracking list is empty




NASA's NSSDC Master Catalog

Two Line Element Set (TLE):
1 46597U 20061BG  21025.45572814  .00002029  00000-0  11136-3 0  9994
2 46597  97.4600 101.9563 0009172  95.1762 265.0517 15.15234735 16811
Source of the keplerian elements: AFSPC